Weather in Zhimbira

Russia / Zabaykalsky Krai     51°31′02″N   114°00′50″E
temp.,
°C
wind,
m/s
gust,
m/s
humid.,
%
clouds,
%
prec.,
mm/h
press.,
hPa
HPBL,
m
10 may, mon
mon1000:00+4ene119160 0.3 101012
03:00+2sw11935 0.3 101010
06:00+2ne0093100 0.0 101010
09:00+6ne2274100 0.0 1009368
12:00+8ene2263100 0.2 1008921
15:00+7ese1279100 1.9 1008966
18:00+7wsw2179100 0.8 1008440
21:00+5w228998 1.2 100934
11 may, tue
tue1100:00+3wsw22945 0.0 101012
03:00+2nw229578 0.0 101013
06:00+1w2195100 0.0 101013
09:00+6nw3474100 0.0 1009465
12:00+12nnw4541100 0.0 10061958
15:00+15nnw462798 0.0 10043083
18:00+14nnw7729100 0.0 10032715
21:00+8wnw61268100 0.4 1007492
12 may, wed
wed1200:00+6w512695 0.3 1008404
03:00+4w612716 0.3 1008413
06:00+2w612745 0.0 1010419
09:00+7wnw69552 0.0 1008765
12:00+12wnw69335 0.0 10062031
15:00+15nw71125100 0.0 10043224
18:00+14wnw7931100 0.0 10042568
21:00+9w3658100 0.1 1006157
13 may, thu
thu1300:00+6wnw495787 0.0 1008227
03:00+4w51048100 0.0 1009442
06:00+3w5947100 0.0 1009401
09:00+4wnw5741100 0.1 1009683
12:00+8nw4531100 0.0 10081820
15:00+11nw4624100 0.0 10062613
18:00+11wnw3422100 0.0 10052769
21:00+8nw3430100 0.0 100559
14 may, fri
fri1400:00+5wnw51141100 0.0 1007389
03:00+3nw4857100 0.0 1009339
06:00+1nw387894 0.0 1011255
09:00+5nnw67525 0.0 10121156
12:00+8nnw81035100 0.0 10112521
15:00+10nnw71028100 0.0 10102826
18:00+13nnw6102374 0.0 10082919
21:00+8w22346 0.0 100910